Terug naar catalogus

ATLAS 5 CENTAUR DEB

ActiefHEO
NORAD 43994·DEBRIS·🇺🇸 United States

Gelanceerd Sep 17, 2014 vanaf Cape Canaveral Space Force Station

Loading…

Volgende Passages (komende 24 uur)

TLE

VersSource: Space-Track

Epoch: Sep 7, 2026, 11:54 UTC

1 43994U 14055AZ  26250.49584446 -.00000044  00000-0  00000-0 0  9992
2 43994  19.4459 171.3724 4596078 118.3273 295.1704  1.80957371 52312

Volg ATLAS 5 CENTAUR DEB in realtime met AllMySat

Download on the App Store